FW8813 Weather Reports


time (UTC)temp
C
wind
direction
speed
KPH
gust
KPH
rain 1hr
cm
rain 24hr
cm
rain mn
cm
humidity
%
barometer
mb
20260504130533 12 0 0.0 0.0 0.00 0.00 0.00 71 1016.9
20260504110533 4 0 0.0 0.0 0.00 0.00 0.00 92 1016.8
20260504100532 2 218 0.0 1.6 0.00 0.00 0.00 93 1016.8
20260504081542 2 0 0.0 0.0 0.00 0.00 0.00 91 1016.7
20260504081033 2 0 0.0 0.0 0.00 0.00 0.00 92 1016.7
20260504080533 2 0 0.0 0.0 0.00 0.00 0.00 92 1016.7
20260504050535 4 0 0.0 0.0 0.00 0.00 0.00 86 1017.1
20260504045533 4 0 0.0 0.0 0.00 0.00 0.00 86 1017.1
20260504045034 4 0 0.0 0.0 0.00 0.00 0.00 87 1017.2
20260504044545 4 0 0.0 0.0 0.00 0.00 0.00 87 1017.1
20260504044034 3 0 0.0 0.0 0.00 0.00 0.00 86 1017.1
20260504043534 3 0 0.0 0.0 0.00 0.00 0.00 85 1017.0
20260504043048 4 0 0.0 0.0 0.00 0.00 0.00 84 1016.9
20260504042534 4 0 0.0 0.0 0.00 0.00 0.00 83 1017.1
20260504042032 5 0 0.0 0.0 0.00 0.00 0.00 82 1017.1
20260504041539 5 0 0.0 0.0 0.00 0.00 0.00 82 1017.0
20260504041033 5 0 0.0 0.0 0.00 0.00 0.00 81 1017.2
20260504040536 5 0 0.0 4.8 0.00 0.00 0.00 81 1017.0
20260504040100 5 0 0.0 4.8 0.00 0.00 0.00 81 1017.1
20260504035534 5 285 1.6 4.8 0.00 0.00 0.00 82 1017.2
20260504035033 5 0 0.0 0.0 0.00 0.00 0.00 81 1017.1
20260504034547 5 0 0.0 1.6 0.00 0.00 0.00 81 1017.0
20260504034033 5 0 0.0 1.6 0.00 0.00 0.00 81 1017.1
20260504033534 5 0 0.0 0.0 0.00 0.00 0.00 82 1017.1
20260504033047 6 0 0.0 1.6 0.00 0.00 0.00 81 1017.0
20260504032535 6 0 0.0 1.6 0.00 0.00 0.00 80 1017.1
20260504032034 6 285 0.0 1.6 0.00 0.00 0.00 79 1017.0
20260504031544 6 0 0.0 0.0 0.00 0.00 0.00 79 1017.1
20260504031035 6 0 0.0 0.0 0.00 0.00 0.00 79 1017.1
20260504030534 6 0 0.0 0.0 0.00 0.00 0.00 80 1017.2
20260504030046 6 0 0.0 0.0 0.00 0.00 0.00 79 1017.2
20260504025533 6 0 0.0 0.0 0.00 0.00 0.00 79 1017.2
20260504025033 6 0 0.0 0.0 0.00 0.00 0.00 78 1017.2
20260504024542 6 0 0.0 0.0 0.00 0.00 0.00 77 1017.3
20260504024034 6 0 0.0 0.0 0.00 0.00 0.00 76 1017.1
20260504023535 6 0 0.0 0.0 0.00 0.00 0.00 77 1017.1
20260504023045 6 0 0.0 0.0 0.00 0.00 0.00 75 1016.9
20260504022537 6 0 0.0 0.0 0.00 0.00 0.00 75 1017.0
20260504022034 7 0 0.0 0.0 0.00 0.00 0.00 74 1017.0
20260504021547 7 0 0.0 0.0 0.00 0.00 0.00 73 1016.9
20260504021033 7 0 0.0 0.0 0.00 0.00 0.00 72 1017.0
20260504020534 7 0 0.0 0.0 0.00 0.00 0.00 72 1017.2
20260504020046 7 0 0.0 0.0 0.00 0.00 0.00 73 1016.9
20260504015533 7 0 0.0 0.0 0.00 0.00 0.00 72 1016.7
20260504015032 7 0 0.0 0.0 0.00 0.00 0.00 71 1016.4
20260504014553 8 0 0.0 0.0 0.00 0.00 0.00 70 1016.5
20260504014033 8 0 0.0 0.0 0.00 0.00 0.00 69 1016.3
20260504013534 8 0 0.0 0.0 0.00 0.00 0.00 69 1016.3
20260504013039 8 0 0.0 3.2 0.00 0.00 0.00 69 1016.3
20260504012536 8 281 0.0 3.2 0.00 0.00 0.00 67 1016.3
20260504012034 9 0 0.0 3.2 0.00 0.00 0.00 66 1016.1
20260504011542 9 0 0.0 3.2 0.00 0.00 0.00 64 1016.0
20260504011034 9 279 0.0 1.6 0.00 0.00 0.00 62 1016.0
20260504010533 10 0 0.0 0.0 0.00 0.00 0.00 63 1016.0
20260504010053 10 0 0.0 0.0 0.00 0.00 0.00 61 1015.8
20260504005535 10 0 0.0 0.0 0.00 0.00 0.00 59 1015.7
20260504005036 11 0 0.0 0.0 0.00 0.00 0.00 58 1015.9
20260504004550 11 0 0.0 0.0 0.00 0.00 0.00 57 1015.9
20260504004035 11 0 0.0 0.0 0.00 0.00 0.00 56 1016.0
20260504003534 11 0 0.0 0.0 0.00 0.00 0.00 54 1015.9
20260504003055 11 0 0.0 0.0 0.00 0.00 0.00 53 1016.0
20260504002533 12 0 0.0 0.0 0.00 0.00 0.00 53 1015.9
20260504002034 12 0 0.0 0.0 0.00 0.00 0.00 52 1016.0
20260504001555 13 0 0.0 0.0 0.00 0.00 0.00 52 1015.9
20260504001034 13 0 0.0 0.0 0.00 0.00 0.00 46 1015.8
20260504000533 13 0 0.0 0.0 0.00 0.00 0.00 43 1015.7
20260504000042 14 0 0.0 0.0 0.00 0.00 0.00 42 1015.6
20260503235533 14 0 0.0 0.0 0.00 0.00 0.00 41 1015.6
20260503235040 15 0 0.0 0.0 0.00 0.00 0.00 40 1015.5
20260503234549 15 0 0.0 0.0 0.00 0.00 0.00 39 1015.5
20260503234034 15 0 0.0 0.0 0.00 0.00 0.00 39 1015.5
20260503233533 16 0 0.0 0.0 0.00 0.00 0.00 38 1015.3
20260503233047 16 0 0.0 0.0 0.00 0.00 0.00 37 1015.2
20260503232533 16 0 0.0 1.6 0.00 0.00 0.00 35 1015.3
20260503232033 17 0 0.0 1.6 0.00 0.00 0.00 34 1015.4
20260503231548 17 0 0.0 3.2 0.00 0.00 0.00 34 1015.4
20260503231033 18 217 0.0 3.2 0.00 0.00 0.00 31 1015.3
20260503230537 18 246 0.0 3.2 0.00 0.00 0.00 32 1015.3
20260503225533 18 197 0.0 4.8 0.00 0.00 0.00 32 1015.4
20260503225033 19 153 0.0 3.2 0.00 0.00 0.00 31 1015.3
20260503224546 19 0 0.0 4.8 0.00 0.00 0.00 31 1015.3
20260503224034 18 0 0.0 4.8 0.00 0.00 0.00 30 1015.4
20260503223534 18 0 1.6 4.8 0.00 0.00 0.00 31 1015.4
20260503223044 18 239 0.0 6.4 0.00 0.00 0.00 30 1015.5
20260503222535 18 152 1.6 8.0 0.00 0.00 0.00 30 1015.6
20260503222122 18 264 3.2 12.9 0.00 0.00 0.00 28 1015.5
20260503221551 18 272 4.8 12.9 0.00 0.00 0.00 27 1015.4
20260503221033 18 267 6.4 12.9 0.00 0.00 0.00 27 1015.6
20260503220534 18 0 3.2 8.0 0.00 0.00 0.00 28 1015.6
20260503220053 18 24 3.2 9.7 0.00 0.00 0.00 25 1015.7
20260503215533 18 0 3.2 12.9 0.00 0.00 0.00 25 1015.8
20260503215033 18 328 4.8 12.9 0.00 0.00 0.00 26 1015.8
20260503214545 18 264 4.8 9.7 0.00 0.00 0.00 28 1015.8
20260503214033 18 277 4.8 12.9 0.00 0.00 0.00 27 1015.8
20260503213533 18 286 1.6 12.9 0.00 0.00 0.00 28 1015.9
20260503213046 18 259 3.2 11.3 0.00 0.00 0.00 31 1015.8
20260503212534 18 290 4.8 11.3 0.00 0.00 0.00 27 1015.9
20260503212033 18 252 4.8 9.7 0.00 0.00 0.00 27 1015.8
20260503211544 18 284 4.8 14.5 0.00 0.00 0.00 25 1015.8
20260503211033 18 299 4.8 14.5 0.00 0.00 0.00 26 1016.0
20260503210534 18 290 8.0 17.7 0.00 0.00 0.00 25 1016.0
20260503210045 18 292 8.0 17.7 0.00 0.00 0.00 26 1016.0
20260503205534 18 303 4.8 11.3 0.00 0.00 0.00 26 1015.9
20260503205034 18 304 4.8 11.3 0.00 0.00 0.00 26 1016.0
20260503204544 18 317 3.2 8.0 0.00 0.00 0.00 27 1016.1
20260503204034 18 338 1.6 6.4 0.00 0.00 0.00 30 1016.2
20260503203537 18 224 1.6 14.5 0.00 0.00 0.00 28 1016.1
20260503203047 18 270 3.2 16.1 0.00 0.00 0.00 29 1016.2
20260503202534 17 271 8.0 16.1 0.00 0.00 0.00 25 1016.1
20260503202034 17 278 9.7 16.1 0.00 0.00 0.00 25 1016.2
20260503201548 17 252 3.2 14.5 0.00 0.00 0.00 26 1016.3
20260503201033 17 298 1.6 14.5 0.00 0.00 0.00 28 1016.4
20260503200535 17 21 3.2 12.9 0.00 0.00 0.00 28 1016.4
20260503200041 17 264 8.0 12.9 0.00 0.00 0.00 25 1016.5
20260503195534 17 0 1.6 16.1 0.00 0.00 0.00 28 1016.6
20260503195034 17 248 3.2 16.1 0.00 0.00 0.00 27 1016.7
20260503194547 17 11 4.8 11.3 0.00 0.00 0.00 26 1016.7
20260503194034 17 49 4.8 14.5 0.00 0.00 0.00 28 1016.7
20260503193535 17 281 8.0 14.5 0.00 0.00 0.00 32 1016.7
20260503193048 17 360 4.8 12.9 0.00 0.00 0.00 31 1016.8
20260503192534 17 300 6.4 12.9 0.00 0.00 0.00 31 1016.9
20260503192034 17 158 4.8 12.9 0.00 0.00 0.00 30 1016.9
20260503191542 17 266 4.8 9.7 0.00 0.00 0.00 29 1017.2
20260503191036 17 240 3.2 12.9 0.00 0.00 0.00 31 1017.2
20260503190545 17 235 4.8 12.9 0.00 0.00 0.00 34 1017.3
20260503190042 17 0 1.6 11.3 0.00 0.00 0.00 32 1017.3
20260503185533 16 76 3.2 11.3 0.00 0.00 0.00 29 1017.4
20260503185035 17 243 3.2 14.5 0.00 0.00 0.00 28 1017.6
20260503184548 16 236 3.2 16.1 0.00 0.00 0.00 27 1017.6
20260503184033 16 7 6.4 16.1 0.00 0.00 0.00 30 1017.8
20260503183534 16 293 6.4 16.1 0.00 0.00 0.00 29 1017.6
20260503183105 16 304 4.8 14.5 0.00 0.00 0.00 28 1017.7
20260503182534 16 338 1.6 14.5 0.00 0.00 0.00 30 1017.9
20260503182034 16 267 1.6 14.5 0.00 0.00 0.00 30 1017.8
20260503181603 16 243 6.4 14.5 0.00 0.00 0.00 32 1018.0
20260503181033 16 297 3.2 16.1 0.00 0.00 0.00 32 1018.0
20260503180534 16 26 6.4 22.5 0.00 0.00 0.00 32 1018.2
20260503180044 16 104 9.7 22.5 0.00 0.00 0.00 32 1018.2
20260503175534 16 43 9.7 17.7 0.00 0.00 0.00 31 1018.2
20260503175034 16 293 1.6 6.4 0.00 0.00 0.00 34 1018.3
20260503174548 16 0 0.0 8.0 0.00 0.00 0.00 36 1018.3
20260503174034 16 266 3.2 14.5 0.00 0.00 0.00 33 1018.2
20260503173534 16 249 6.4 14.5 0.00 0.00 0.00 31 1018.2
20260503173039 16 216 3.2 14.5 0.00 0.00 0.00 31 1018.2
20260503172536 16 198 1.6 14.5 0.00 0.00 0.00 36 1018.4
20260503172036 16 154 4.8 14.5 0.00 0.00 0.00 32 1018.7
20260503171545 15 153 1.6 9.7 0.00 0.00 0.00 35 1018.4
20260503171033 15 81 3.2 9.7 0.00 0.00 0.00 31 1018.4
20260503170533 15 79 3.2 9.7 0.00 0.00 0.00 37 1018.5
20260503150534 11 0 8.0 16.1 0.00 0.00 0.00 44 1020.1
20260503131033 8 269 4.8 14.5 0.00 0.00 0.00 55 1020.1